Time,TemperatureF,DewpointF,PressureIn,WindDirection,WindDirectionDegrees,WindSpeedMPH,WindSpeedGustMPH,Humidity,HourlyPrecipIn,Conditions,Clouds,dailyrainin,SolarRadiationWatts/m^2,SoftwareType,DateUTC
2013-02-21 00:00:00,46.4,40.6,30.00,NE,46,2.3,2.3,80,0.00,RA,,0.00,0.0,WeatherDisplay:10.37,2013-02-21 08:00:00,
2013-02-21 00:05:00,46.3,40.5,30.00,NE,46,2.0,2.0,80,0.00,RA,,0.00,0.0,WeatherDisplay:10.37,2013-02-21 08:05:00,
2013-02-21 00:10:00,46.3,40.5,30.00,NE,46,2.3,2.3,80,0.00,RA,,0.00,0.0,WeatherDisplay:10.37,2013-02-21 08:10:00,
2013-02-21 00:16:00,46.4,40.9,30.00,NE,46,2.3,2.3,81,0.00,CLR,,0.00,0.0,WeatherDisplay:10.37,2013-02-21 08:16:00,
2013-02-21 00:21:00,46.4,40.6,30.00,NE,46,3.5,3.5,80,0.00,CLR,,0.00,0.0,WeatherDisplay:10.37,2013-02-21 08:21:00,
2013-02-21 00:26:00,46.3,40.5,30.00,NE,46,2.3,2.3,80,0.00,CLR,,0.00,0.0,WeatherDisplay:10.37,2013-02-21 08:26:00,
2013-02-21 00:31:00,46.4,40.6,30.00,NE,47,3.5,3.5,80,0.00,CLR,,0.00,0.0,WeatherDisplay:10.37,2013-02-21 08:31:00,
2013-02-21 00:36:00,46.6,40.8,30.00,NE,49,3.5,3.5,80,0.00,CLR,,0.00,0.0,WeatherDisplay:10.37,2013-02-21 08:36:00,
2013-02-21 00:41:00,46.8,40.6,30.01,NE,49,2.3,2.3,79,0.00,CLR,,0.00,0.0,WeatherDisplay:10.37,2013-02-21 08:41:00,
2013-02-21 00:46:00,46.9,40.7,30.01,NE,49,2.0,2.0,79,0.00,CLR,,0.00,0.0,WeatherDisplay:10.37,2013-02-21 08:46:00,
2013-02-21 00:51:00,47.0,40.8,30.01,NE,49,3.5,3.5,79,0.00,CLR,,0.00,0.0,WeatherDisplay:10.37,2013-02-21 08:51:00,
2013-02-21 00:56:00,47.1,40.6,30.01,NE,49,3.5,3.5,78,0.00,CLR,,0.00,0.0,WeatherDisplay:10.37,2013-02-21 08:56:00,
2013-02-21 01:01:00,47.0,40.5,30.02,NE,49,3.5,3.5,78,0.00,CLR,,0.00,0.0,WeatherDisplay:10.37,2013-02-21 09:01:00,
2013-02-21 01:06:00,46.9,40.4,30.02,NE,49,3.5,3.5,78,0.00,CLR,,0.00,0.0,WeatherDisplay:10.37,2013-02-21 09:06:00,
2013-02-21 01:11:00,46.8,40.3,30.02,NE,49,3.5,3.5,78,0.00,CLR,,0.00,0.0,WeatherDisplay:10.37,2013-02-21 09:11:00,
2013-02-21 01:16:00,46.8,40.3,30.02,NE,49,3.5,3.5,78,0.00,CLR,,0.00,0.0,WeatherDisplay:10.37,2013-02-21 09:16:00,
2013-02-21 01:21:00,46.7,40.2,30.02,NE,49,3.5,3.5,78,0.00,CLR,,0.00,0.0,WeatherDisplay:10.37,2013-02-21 09:21:00,
2013-02-21 01:26:00,46.7,40.2,30.02,NE,49,2.3,2.3,78,0.00,CLR,,0.00,0.0,WeatherDisplay:10.37,2013-02-21 09:26:00,
2013-02-21 01:31:00,46.8,40.3,30.02,NE,49,2.3,2.3,78,0.00,CLR,,0.00,0.0,WeatherDisplay:10.37,2013-02-21 09:31:00,
2013-02-21 01:36:00,46.9,40.4,30.02,NE,51,4.0,4.0,78,0.00,CLR,,0.00,0.0,WeatherDisplay:10.37,2013-02-21 09:36:00,
2013-02-21 01:41:00,46.9,40.4,30.02,NE,51,2.3,2.3,78,0.00,CLR,,0.00,0.0,WeatherDisplay:10.37,2013-02-21 09:41:00,
2013-02-21 01:46:00,46.8,40.3,30.02,NE,53,3.5,3.5,78,0.00,CLR,,0.00,0.0,WeatherDisplay:10.37,2013-02-21 09:46:00,
2013-02-21 01:51:00,47.0,40.5,30.02,NE,53,4.0,4.0,78,0.00,CLR,,0.00,0.0,WeatherDisplay:10.37,2013-02-21 09:51:00,
2013-02-21 01:56:00,47.0,40.5,30.02,NE,53,3.0,3.0,78,0.00,CLR,,0.00,0.0,WeatherDisplay:10.37,2013-02-21 09:56:00,
2013-02-21 02:01:00,47.2,40.7,30.02,ENE,59,4.0,4.0,78,0.00,CLR,,0.00,0.0,WeatherDisplay:10.37,2013-02-21 10:01:00,
2013-02-21 02:06:00,47.4,40.9,30.01,ENE,61,3.5,3.5,78,0.00,CLR,,0.00,0.0,WeatherDisplay:10.37,2013-02-21 10:06:00,
2013-02-21 02:11:00,47.5,41.0,30.01,ENE,67,4.6,4.6,78,0.00,CLR,,0.00,0.0,WeatherDisplay:10.37,2013-02-21 10:11:00,
2013-02-21 02:16:00,47.5,40.6,30.01,ENE,67,3.5,3.5,77,0.00,CLR,,0.00,0.0,WeatherDisplay:10.37,2013-02-21 10:16:00,
2013-02-21 02:21:00,47.4,40.9,30.01,ENE,67,3.5,3.5,78,0.00,CLR,,0.00,0.0,WeatherDisplay:10.37,2013-02-21 10:21:00,
2013-02-21 02:26:00,47.4,40.9,30.01,ENE,76,5.0,5.0,78,0.00,CLR,,0.00,0.0,WeatherDisplay:10.37,2013-02-21 10:26:00,
2013-02-21 02:31:00,47.3,40.8,30.01,ENE,77,4.0,4.0,78,0.00,CLR,,0.00,0.0,WeatherDisplay:10.37,2013-02-21 10:31:00,
2013-02-21 02:36:00,47.3,40.8,30.01,ENE,78,3.5,3.5,78,0.00,CLR,,0.00,0.0,WeatherDisplay:10.37,2013-02-21 10:36:00,
2013-02-21 02:41:00,47.3,40.8,30.01,ENE,77,3.5,3.5,78,0.00,CLR,,0.00,0.0,WeatherDisplay:10.37,2013-02-21 10:41:00,
2013-02-21 02:46:00,47.3,40.8,30.00,ENE,76,3.5,3.5,78,0.00,CLR,,0.00,0.0,WeatherDisplay:10.37,2013-02-21 10:46:00,
2013-02-21 02:51:00,47.2,40.7,30.00,ENE,78,2.3,2.3,78,0.00,CLR,,0.00,0.0,WeatherDisplay:10.37,2013-02-21 10:51:00,
2013-02-21 02:56:00,47.0,40.5,30.00,ENE,78,3.5,3.5,78,0.00,CLR,,0.00,0.0,WeatherDisplay:10.37,2013-02-21 10:56:00,
2013-02-21 03:01:00,46.9,40.7,30.00,ENE,75,2.3,2.3,79,0.00,CLR,,0.00,0.0,WeatherDisplay:10.37,2013-02-21 11:01:00,
2013-02-21 03:06:00,46.7,40.5,30.00,ENE,75,2.3,2.3,79,0.00,CLR,,0.00,0.0,WeatherDisplay:10.37,2013-02-21 11:06:00,
2013-02-21 03:11:00,46.4,40.6,30.00,ENE,74,2.3,2.3,80,0.00,CLR,,0.00,0.0,WeatherDisplay:10.37,2013-02-21 11:11:00,
2013-02-21 03:16:00,46.4,40.9,30.00,ENE,74,2.3,2.3,81,0.00,CLR,,0.00,0.0,WeatherDisplay:10.37,2013-02-21 11:16:00,
2013-02-21 03:21:00,46.3,40.8,30.00,ENE,74,1.1,1.1,81,0.00,CLR,,0.00,0.0,WeatherDisplay:10.37,2013-02-21 11:21:00,
2013-02-21 03:26:00,46.4,41.2,30.01,ENE,74,0.0,0.0,82,0.00,CLR,,0.00,0.0,WeatherDisplay:10.37,2013-02-21 11:26:00,
2013-02-21 03:31:00,46.1,40.6,30.01,ENE,74,1.1,0.0,81,0.00,CLR,,0.00,0.0,WeatherDisplay:10.37,2013-02-21 11:31:00,
2013-02-21 03:36:00,45.8,40.3,30.01,ENE,74,3.5,3.5,81,0.00,CLR,,0.00,0.0,WeatherDisplay:10.37,2013-02-21 11:36:00,
2013-02-21 03:41:00,45.4,39.9,30.01,ENE,74,2.3,2.3,81,0.00,CLR,,0.00,0.0,WeatherDisplay:10.37,2013-02-21 11:41:00,
2013-02-21 03:46:00,45.2,40.0,30.00,ENE,74,2.3,0.0,82,0.00,CLR,,0.00,0.0,WeatherDisplay:10.37,2013-02-21 11:46:00,
2013-02-21 03:51:00,45.0,39.8,30.01,ENE,74,0.0,0.0,82,0.00,CLR,,0.00,0.0,WeatherDisplay:10.37,2013-02-21 11:51:00,
2013-02-21 03:56:00,45.7,41.4,30.01,ENE,74,2.3,2.3,85,0.00,CLR,,0.00,0.0,WeatherDisplay:10.37,2013-02-21 11:56:00,
2013-02-21 04:01:00,45.1,39.9,30.02,ENE,74,1.1,0.0,82,0.00,CLR,,0.00,0.0,WeatherDisplay:10.37,2013-02-21 12:01:00,
2013-02-21 04:06:00,44.7,39.9,30.02,ENE,74,1.1,1.1,83,0.00,CLR,,0.00,0.0,WeatherDisplay:10.37,2013-02-21 12:06:00,
2013-02-21 04:11:00,44.4,39.6,30.02,ENE,74,0.0,0.0,83,0.00,CLR,,0.00,0.0,WeatherDisplay:10.37,2013-02-21 12:11:00,
2013-02-21 04:16:00,44.2,39.4,30.02,ENE,74,0.0,0.0,83,0.00,CLR,,0.00,0.0,WeatherDisplay:10.37,2013-02-21 12:16:00,
2013-02-21 04:21:00,44.1,39.6,30.01,ENE,74,1.1,1.1,84,0.00,CLR,,0.00,0.0,WeatherDisplay:10.37,2013-02-21 12:21:00,
2013-02-21 04:26:00,43.9,39.1,30.01,ENE,74,1.1,0.0,83,0.00,CLR,,0.00,0.0,WeatherDisplay:10.37,2013-02-21 12:26:00,
2013-02-21 04:31:00,43.9,39.1,30.01,ENE,74,1.1,1.1,83,0.00,CLR,,0.00,0.0,WeatherDisplay:10.37,2013-02-21 12:31:00,
2013-02-21 04:36:00,43.8,39.0,30.01,ENE,74,1.1,0.0,83,0.00,CLR,,0.00,0.0,WeatherDisplay:10.37,2013-02-21 12:36:00,
2013-02-21 04:41:00,43.8,39.0,30.01,ENE,74,2.0,2.0,83,0.00,CLR,,0.00,0.0,WeatherDisplay:10.37,2013-02-21 12:41:00,
2013-02-21 04:46:00,43.8,39.0,30.01,ENE,74,1.1,1.1,83,0.00,CLR,,0.00,0.0,WeatherDisplay:10.37,2013-02-21 12:46:00,
2013-02-21 04:51:00,43.7,38.9,30.01,ENE,74,0.0,0.0,83,0.00,CLR,,0.00,0.0,WeatherDisplay:10.37,2013-02-21 12:51:00,
2013-02-21 04:56:00,43.6,39.1,30.02,ENE,74,1.1,0.0,84,0.00,CLR,,0.00,0.0,WeatherDisplay:10.37,2013-02-21 12:56:00,
2013-02-21 05:01:00,43.5,39.0,30.02,ENE,74,0.0,0.0,84,0.00,CLR,,0.00,0.0,WeatherDisplay:10.37,2013-02-21 13:01:00,
2013-02-21 05:06:00,43.3,38.8,30.01,ENE,74,2.0,2.0,84,0.00,CLR,,0.00,0.0,WeatherDisplay:10.37,2013-02-21 13:06:00,
2013-02-21 05:11:00,43.3,38.8,30.01,ENE,74,1.1,0.0,84,0.00,CLR,,0.00,0.0,WeatherDisplay:10.37,2013-02-21 13:11:00,
2013-02-21 05:16:00,43.4,38.9,30.01,ENE,74,2.3,2.3,84,0.00,CLR,,0.00,0.0,WeatherDisplay:10.37,2013-02-21 13:16:00,
2013-02-21 05:21:00,43.6,39.1,30.01,ENE,74,2.3,2.3,84,0.00,CLR,,0.00,0.0,WeatherDisplay:10.37,2013-02-21 13:21:00,
2013-02-21 05:26:00,43.7,38.9,30.01,ENE,74,1.1,0.0,83,0.00,CLR,,0.00,0.0,WeatherDisplay:10.37,2013-02-21 13:26:00,
2013-02-21 05:31:00,43.6,38.8,30.01,ENE,74,1.1,0.0,83,0.00,CLR,,0.00,0.0,WeatherDisplay:10.37,2013-02-21 13:31:00,
2013-02-21 05:36:00,43.6,38.8,30.02,ENE,74,1.1,1.1,83,0.00,CLR,,0.00,0.0,WeatherDisplay:10.37,2013-02-21 13:36:00,
2013-02-21 05:41:00,43.6,38.8,30.02,ENE,74,2.0,2.0,83,0.00,CLR,,0.00,0.0,WeatherDisplay:10.37,2013-02-21 13:41:00,
2013-02-21 05:46:00,43.5,38.4,30.02,ENE,74,0.0,0.0,82,0.00,CLR,,0.00,0.0,WeatherDisplay:10.37,2013-02-21 13:46:00,
2013-02-21 05:51:00,43.4,38.3,30.02,ENE,74,1.1,1.1,82,0.00,CLR,,0.00,0.0,WeatherDisplay:10.37,2013-02-21 13:51:00,
2013-02-21 05:56:00,43.3,38.5,30.02,ENE,74,2.0,2.0,83,0.00,CLR,,0.00,0.0,WeatherDisplay:10.37,2013-02-21 13:56:00,
2013-02-21 06:01:00,43.3,38.5,30.02,ENE,74,2.3,2.3,83,0.00,CLR,,0.00,0.0,WeatherDisplay:10.37,2013-02-21 14:01:00,
2013-02-21 06:06:00,43.4,38.6,30.02,ENE,74,2.0,2.0,83,0.00,CLR,,0.00,0.0,WeatherDisplay:10.37,2013-02-21 14:06:00,
2013-02-21 06:11:00,43.4,38.6,30.02,ENE,74,1.1,1.1,83,0.00,CLR,,0.00,0.0,WeatherDisplay:10.37,2013-02-21 14:11:00,
2013-02-21 06:16:00,43.4,38.6,30.03,ENE,74,1.1,1.1,83,0.00,CLR,,0.00,0.0,WeatherDisplay:10.37,2013-02-21 14:16:00,
2013-02-21 06:21:00,43.4,38.6,30.03,ENE,74,2.0,2.0,83,0.00,CLR,,0.00,0.0,WeatherDisplay:10.37,2013-02-21 14:21:00,
2013-02-21 06:26:00,43.6,38.8,30.03,ENE,74,1.1,1.1,83,0.00,CLR,,0.00,0.0,WeatherDisplay:10.37,2013-02-21 14:26:00,
2013-02-21 06:31:00,43.6,38.8,30.03,ENE,74,0.0,0.0,83,0.00,CLR,,0.00,0.0,WeatherDisplay:10.37,2013-02-21 14:31:00,
2013-02-21 06:36:00,43.7,38.9,30.03,ENE,74,0.0,0.0,83,0.00,SCT,,0.00,7.0,WeatherDisplay:10.37,2013-02-21 14:36:00,
2013-02-21 06:41:00,43.7,38.9,30.04,ENE,74,0.0,0.0,83,0.00,BKN,,0.00,11.0,WeatherDisplay:10.37,2013-02-21 14:41:00,
2013-02-21 06:46:00,43.6,38.5,30.04,ENE,74,0.0,0.0,82,0.00,SCT,,0.00,18.0,WeatherDisplay:10.37,2013-02-21 14:46:00,
2013-02-21 06:51:00,43.6,38.8,30.04,ENE,74,0.0,0.0,83,0.00,SCT,,0.00,23.0,WeatherDisplay:10.37,2013-02-21 14:51:00,
2013-02-21 06:56:00,43.6,38.8,30.04,ENE,74,0.0,0.0,83,0.00,SCT,,0.00,30.0,WeatherDisplay:10.37,2013-02-21 14:56:00,
2013-02-21 07:01:00,43.7,38.9,30.03,ENE,74,1.0,1.0,83,0.00,SCT,,0.00,37.0,WeatherDisplay:10.37,2013-02-21 15:01:00,
2013-02-21 07:06:00,43.8,39.0,30.04,ENE,74,0.0,0.0,83,0.00,SCT,,0.00,54.0,WeatherDisplay:10.37,2013-02-21 15:06:00,
2013-02-21 07:11:00,44.1,39.3,30.04,ENE,74,1.1,0.0,83,0.00,FEW,,0.00,72.0,WeatherDisplay:10.37,2013-02-21 15:11:00,
2013-02-21 07:16:00,44.5,39.7,30.04,ENE,74,1.1,1.1,83,0.00,FEW,,0.00,81.0,WeatherDisplay:10.37,2013-02-21 15:16:00,
2013-02-21 07:21:00,45.0,39.8,30.04,ENE,74,1.1,1.1,82,0.00,FEW,,0.00,95.0,WeatherDisplay:10.37,2013-02-21 15:21:00,
2013-02-21 07:26:00,45.6,40.1,30.05,ENE,74,3.5,3.5,81,0.00,CLR,,0.00,132.0,WeatherDisplay:10.37,2013-02-21 15:26:00,
2013-02-21 07:31:00,46.3,40.5,30.04,ENE,73,3.5,3.5,80,0.00,CLR,,0.00,148.0,WeatherDisplay:10.37,2013-02-21 15:31:00,
2013-02-21 07:36:00,46.9,40.7,30.05,ENE,73,4.0,4.0,79,0.00,CLR,,0.00,149.0,WeatherDisplay:10.37,2013-02-21 15:36:00,
2013-02-21 07:41:00,47.6,40.7,30.05,ENE,73,3.5,3.5,77,0.00,CLR,,0.00,171.0,WeatherDisplay:10.37,2013-02-21 15:41:00,
2013-02-21 07:46:00,48.0,40.8,30.06,ENE,72,3.5,3.5,76,0.00,CLR,,0.00,192.0,WeatherDisplay:10.37,2013-02-21 15:46:00,
2013-02-21 07:51:00,48.5,40.9,30.06,ENE,71,3.5,3.5,75,0.00,CLR,,0.00,229.0,WeatherDisplay:10.37,2013-02-21 15:51:00,
2013-02-21 07:56:00,49.0,41.1,30.06,ENE,71,3.5,3.5,74,0.00,CLR,,0.00,241.0,WeatherDisplay:10.37,2013-02-21 15:56:00,
2013-02-21 08:01:00,49.5,41.2,30.06,ENE,74,3.5,3.5,73,0.00,CLR,,0.00,250.0,WeatherDisplay:10.37,2013-02-21 16:01:00,
2013-02-21 08:06:00,49.9,41.6,30.06,ENE,74,3.5,3.5,73,0.00,CLR,,0.00,269.0,WeatherDisplay:10.37,2013-02-21 16:06:00,
2013-02-21 08:11:00,50.4,41.7,30.06,ENE,74,3.0,3.0,72,0.00,CLR,,0.00,283.0,WeatherDisplay:10.37,2013-02-21 16:11:00,
2013-02-21 08:16:00,50.6,41.5,30.06,ENE,76,3.5,3.5,71,0.00,CLR,,0.00,309.0,WeatherDisplay:10.37,2013-02-21 16:16:00,
2013-02-21 08:21:00,51.1,41.7,30.06,ENE,75,4.0,4.0,70,0.00,CLR,,0.00,360.0,WeatherDisplay:10.37,2013-02-21 16:21:00,
2013-02-21 08:26:00,51.4,41.6,30.06,ENE,71,4.6,4.6,69,0.00,CLR,,0.00,360.0,WeatherDisplay:10.37,2013-02-21 16:26:00,
2013-02-21 08:31:00,51.8,41.9,30.06,ENE,76,3.5,3.5,69,0.00,CLR,,0.00,415.0,WeatherDisplay:10.37,2013-02-21 16:31:00,
2013-02-21 08:36:00,52.5,42.2,30.06,East,80,4.6,4.6,68,0.00,CLR,,0.00,390.0,WeatherDisplay:10.37,2013-02-21 16:36:00,
2013-02-21 08:41:00,52.9,42.2,30.06,ENE,74,6.9,6.9,67,0.00,CLR,,0.00,438.0,WeatherDisplay:10.37,2013-02-21 16:41:00,
2013-02-21 08:46:00,53.1,42.4,30.05,ENE,74,6.9,6.9,67,0.00,CLR,,0.00,455.0,WeatherDisplay:10.37,2013-02-21 16:46:00,
2013-02-21 08:51:00,53.0,41.9,30.06,ENE,60,6.9,6.9,66,0.00,CLR,,0.00,512.0,WeatherDisplay:10.37,2013-02-21 16:51:00,
2013-02-21 08:56:00,53.4,42.3,30.06,East,88,8.1,8.1,66,0.00,CLR,,0.00,538.0,WeatherDisplay:10.37,2013-02-21 16:56:00,
2013-02-21 09:01:00,54.0,42.5,30.06,ESE,111,7.0,7.0,65,0.00,CLR,,0.00,531.0,WeatherDisplay:10.37,2013-02-21 17:01:00,
2013-02-21 09:06:00,54.2,42.3,30.06,ESE,113,8.1,8.1,64,0.00,CLR,,0.00,446.0,WeatherDisplay:10.37,2013-02-21 17:06:00,
2013-02-21 09:11:00,53.9,42.0,30.06,ESE,112,5.0,5.0,64,0.00,BKN,,0.00,223.0,WeatherDisplay:10.37,2013-02-21 17:11:00,
2013-02-21 09:16:00,53.8,42.3,30.06,SE,144,6.0,6.0,65,0.00,CLR,,0.00,575.0,WeatherDisplay:10.37,2013-02-21 17:16:00,
2013-02-21 09:21:00,53.7,42.2,30.06,ENE,75,6.9,6.9,65,0.00,CLR,,0.00,396.0,WeatherDisplay:10.37,2013-02-21 17:21:00,
2013-02-21 09:26:00,53.9,42.4,30.07,ENE,59,7.0,7.0,65,0.00,CLR,,0.00,378.0,WeatherDisplay:10.37,2013-02-21 17:26:00,
2013-02-21 09:31:00,53.9,42.4,30.07,NE,49,6.9,6.9,65,0.00,CLR,,0.00,559.0,WeatherDisplay:10.37,2013-02-21 17:31:00,
2013-02-21 09:36:00,54.4,42.5,30.07,ESE,122,4.6,4.6,64,0.00,CLR,,0.00,540.0,WeatherDisplay:10.37,2013-02-21 17:36:00,
2013-02-21 09:41:00,54.5,42.6,30.07,NE,38,3.5,3.5,64,0.00,FEW,,0.00,443.0,WeatherDisplay:10.37,2013-02-21 17:41:00,
2013-02-21 09:46:00,54.9,42.9,30.07,NE,40,2.3,2.3,64,0.00,CLR,,0.00,589.0,WeatherDisplay:10.37,2013-02-21 17:46:00,
2013-02-21 09:52:00,55.3,42.9,30.07,ENE,57,3.5,3.5,63,0.00,CLR,,0.00,584.0,WeatherDisplay:10.37,2013-02-21 17:52:00,
2013-02-21 09:57:00,55.7,42.9,30.07,ENE,58,2.3,2.3,62,0.00,CLR,,0.00,591.0,WeatherDisplay:10.37,2013-02-21 17:57:00,
2013-02-21 10:02:00,56.2,42.9,30.07,NE,53,3.5,3.5,61,0.00,CLR,,0.00,638.0,WeatherDisplay:10.37,2013-02-21 18:02:00,
2013-02-21 10:07:00,56.2,42.9,30.07,ENE,63,3.5,3.5,61,0.00,CLR,,0.00,693.0,WeatherDisplay:10.37,2013-02-21 18:07:00,
2013-02-21 10:12:00,55.8,42.5,30.07,NE,48,4.6,4.6,61,0.00,CLR,,0.00,744.0,WeatherDisplay:10.37,2013-02-21 18:12:00,
2013-02-21 10:17:00,55.8,42.5,30.07,East,82,3.5,3.5,61,0.00,CLR,,0.00,766.0,WeatherDisplay:10.37,2013-02-21 18:17:00,
2013-02-21 10:22:00,55.8,43.0,30.07,ESE,123,5.0,5.0,62,0.00,BKN,,0.00,250.0,WeatherDisplay:10.37,2013-02-21 18:22:00,
2013-02-21 10:27:00,55.6,42.4,30.07,SE,133,3.5,3.5,61,0.00,BKN,,0.00,325.0,WeatherDisplay:10.37,2013-02-21 18:27:00,
2013-02-21 10:32:00,55.4,41.7,30.06,SSW,205,5.8,5.8,60,0.00,BKN,,0.00,278.0,WeatherDisplay:10.37,2013-02-21 18:32:00,
2013-02-21 10:37:00,55.3,42.1,30.06,South,178,3.5,3.5,61,0.00,BKN,,0.00,272.0,WeatherDisplay:10.37,2013-02-21 18:37:00,
2013-02-21 10:42:00,55.4,42.2,30.06,SSW,205,6.9,6.9,61,0.00,BKN,,0.00,250.0,WeatherDisplay:10.37,2013-02-21 18:42:00,
2013-02-21 10:47:00,55.4,41.7,30.05,WSW,244,4.0,4.0,60,0.00,SCT,,0.00,714.0,WeatherDisplay:10.37,2013-02-21 18:47:00,
2013-02-21 10:52:00,55.9,42.2,30.05,SW,234,3.5,3.5,60,0.00,CLR,,0.00,731.0,WeatherDisplay:10.37,2013-02-21 18:52:00,
2013-02-21 10:57:00,56.6,42.4,30.05,ESE,112,4.0,4.0,59,0.00,CLR,,0.00,782.0,WeatherDisplay:10.37,2013-02-21 18:57:00,
2013-02-21 11:02:00,57.1,41.5,30.04,ESE,111,7.0,7.0,56,0.00,CLR,,0.00,809.0,WeatherDisplay:10.37,2013-02-21 19:02:00,
2013-02-21 11:07:00,57.3,41.3,30.04,ESE,114,9.2,9.2,55,0.00,CLR,,0.00,816.0,WeatherDisplay:10.37,2013-02-21 19:07:00,
2013-02-21 11:12:00,57.3,41.3,30.04,SE,131,6.9,6.9,55,0.00,CLR,,0.00,816.0,WeatherDisplay:10.37,2013-02-21 19:12:00,
2013-02-21 11:17:00,57.4,40.4,30.04,SE,145,8.1,8.1,53,0.00,CLR,,0.00,766.0,WeatherDisplay:10.37,2013-02-21 19:17:00,
2013-02-21 11:22:00,57.1,41.1,30.03,SSW,211,5.8,5.8,55,0.00,CLR,,0.00,749.0,WeatherDisplay:10.37,2013-02-21 19:22:00,
2013-02-21 11:27:00,57.3,41.3,30.03,SE,138,12.0,12.0,55,0.00,CLR,,0.00,772.0,WeatherDisplay:10.37,2013-02-21 19:27:00,
2013-02-21 11:32:00,57.4,41.4,30.03,ESE,119,8.0,8.0,55,0.00,CLR,,0.00,779.0,WeatherDisplay:10.37,2013-02-21 19:32:00,
2013-02-21 11:37:00,57.4,41.8,30.03,SE,136,5.8,5.8,56,0.00,CLR,,0.00,798.0,WeatherDisplay:10.37,2013-02-21 19:37:00,
2013-02-21 11:42:00,57.8,42.2,30.02,SSE,159,6.9,6.9,56,0.00,CLR,,0.00,807.0,WeatherDisplay:10.37,2013-02-21 19:42:00,
2013-02-21 11:47:00,58.0,41.0,30.02,South,190,4.0,4.0,53,0.00,CLR,,0.00,793.0,WeatherDisplay:10.37,2013-02-21 19:47:00,
2013-02-21 11:52:00,58.0,41.0,30.02,SSE,157,3.5,3.5,53,0.00,CLR,,0.00,803.0,WeatherDisplay:10.37,2013-02-21 19:52:00,
2013-02-21 11:57:00,58.2,40.6,30.02,ESE,121,4.6,4.6,52,0.00,CLR,,0.00,821.0,WeatherDisplay:10.37,2013-02-21 19:57:00,
2013-02-21 12:02:00,58.8,41.2,30.02,ESE,114,6.9,6.9,52,0.00,CLR,,0.00,865.0,WeatherDisplay:10.37,2013-02-21 20:02:00,
2013-02-21 12:07:00,59.4,40.7,30.01,ENE,75,4.6,4.6,50,0.00,CLR,,0.00,881.0,WeatherDisplay:10.37,2013-02-21 20:07:00,
2013-02-21 12:12:00,59.3,40.7,30.01,SE,132,4.6,4.6,50,0.00,FEW,,0.00,274.0,WeatherDisplay:10.37,2013-02-21 20:12:00,
2013-02-21 12:17:00,58.9,39.8,30.01,NNE,17,3.5,3.5,49,0.00,CLR,,0.00,745.0,WeatherDisplay:10.37,2013-02-21 20:17:00,
2013-02-21 12:22:00,58.9,38.1,30.01,North,5,3.5,3.5,46,0.00,CLR,,0.00,719.0,WeatherDisplay:10.37,2013-02-21 20:22:00,
2013-02-21 12:27:00,59.2,38.4,30.01,East,96,3.5,3.5,46,0.00,FEW,,0.00,877.0,WeatherDisplay:10.37,2013-02-21 20:27:00,
2013-02-21 12:32:00,59.6,39.3,30.00,ENE,71,3.0,3.0,47,0.00,CLR,,0.00,863.0,WeatherDisplay:10.37,2013-02-21 20:32:00,
2013-02-21 12:37:00,59.6,39.3,30.00,NNE,19,5.0,5.0,47,0.00,BKN,,0.00,251.0,WeatherDisplay:10.37,2013-02-21 20:37:00,
2013-02-21 12:42:00,58.7,39.0,30.00,NNE,16,5.0,5.0,48,0.00,BKN,,0.00,234.0,WeatherDisplay:10.37,2013-02-21 20:42:00,
2013-02-21 12:47:00,58.5,38.9,30.00,NNE,17,3.5,3.5,48,0.00,BKN,,0.00,241.0,WeatherDisplay:10.37,2013-02-21 20:47:00,
2013-02-21 12:52:00,58.7,39.0,30.00,NNW,343,2.3,2.3,48,0.00,SCT,,0.00,633.0,WeatherDisplay:10.37,2013-02-21 20:52:00,
2013-02-21 12:57:00,58.7,39.0,30.00,NW,325,2.3,2.3,48,0.00,BKN,,0.00,229.0,WeatherDisplay:10.37,2013-02-21 20:57:00,
2013-02-21 13:02:00,59.0,39.3,30.00,WNW,292,2.0,2.0,48,0.00,BKN,,0.00,202.0,WeatherDisplay:10.37,2013-02-21 21:02:00,
2013-02-21 13:07:00,59.2,38.4,30.00,SE,136,3.5,3.5,46,0.00,BKN,,0.00,230.0,WeatherDisplay:10.37,2013-02-21 21:07:00,
2013-02-21 13:12:00,59.1,37.8,29.99,SE,141,3.5,3.5,45,0.00,BKN,,0.00,220.0,WeatherDisplay:10.37,2013-02-21 21:12:00,
2013-02-21 13:17:00,59.3,38.5,29.99,SSE,165,1.1,1.1,46,0.00,BKN,,0.00,181.0,WeatherDisplay:10.37,2013-02-21 21:17:00,
2013-02-21 13:22:00,59.5,38.7,29.99,SSE,165,1.0,0.0,46,0.00,BKN,,0.00,139.0,WeatherDisplay:10.37,2013-02-21 21:22:00,
2013-02-21 13:27:00,60.1,38.7,29.99,South,186,2.3,2.3,45,0.00,CLR,,0.00,675.0,WeatherDisplay:10.37,2013-02-21 21:27:00,
2013-02-21 13:32:00,60.4,37.2,29.99,NNW,329,3.5,3.5,42,0.00,CLR,,0.00,693.0,WeatherDisplay:10.37,2013-02-21 21:32:00,
2013-02-21 13:37:00,60.5,37.3,29.99,NNW,331,6.0,6.0,42,0.00,CLR,,0.00,689.0,WeatherDisplay:10.37,2013-02-21 21:37:00,
2013-02-21 13:42:00,60.7,37.5,29.98,NW,308,4.6,4.6,42,0.00,CLR,,0.00,679.0,WeatherDisplay:10.37,2013-02-21 21:42:00,
2013-02-21 13:47:00,60.7,37.5,29.98,NNW,333,5.8,5.8,42,0.00,CLR,,0.00,686.0,WeatherDisplay:10.37,2013-02-21 21:47:00,
2013-02-21 13:52:00,60.4,36.6,29.99,NNW,344,5.8,5.8,41,0.00,CLR,,0.00,682.0,WeatherDisplay:10.37,2013-02-21 21:52:00,
2013-02-21 13:57:00,60.3,37.1,29.99,North,5,4.6,4.6,42,0.00,FEW,,0.00,267.0,WeatherDisplay:10.37,2013-02-21 21:57:00,
2013-02-21 14:02:00,60.3,37.7,29.98,SE,126,3.5,3.5,43,0.00,CLR,,0.00,635.0,WeatherDisplay:10.37,2013-02-21 22:02:00,
2013-02-21 14:07:00,60.4,37.2,29.98,SE,144,5.0,5.0,42,0.00,CLR,,0.00,622.0,WeatherDisplay:10.37,2013-02-21 22:07:00,
2013-02-21 14:12:00,60.7,36.8,29.98,SSE,156,1.1,1.1,41,0.00,CLR,,0.00,601.0,WeatherDisplay:10.37,2013-02-21 22:12:00,
2013-02-21 14:17:00,61.2,36.7,29.99,WNW,296,4.6,4.6,40,0.00,CLR,,0.00,591.0,WeatherDisplay:10.37,2013-02-21 22:17:00,
2013-02-21 14:22:00,61.7,35.8,29.99,NNW,346,8.1,8.1,38,0.00,CLR,,0.00,599.0,WeatherDisplay:10.37,2013-02-21 22:22:00,
2013-02-21 14:27:00,61.5,36.9,29.99,WNW,292,8.1,8.1,40,0.00,CLR,,0.00,589.0,WeatherDisplay:10.37,2013-02-21 22:27:00,
2013-02-21 14:32:00,61.3,36.1,29.98,NW,313,4.6,4.6,39,0.00,CLR,,0.00,557.0,WeatherDisplay:10.37,2013-02-21 22:32:00,
2013-02-21 14:37:00,61.4,36.2,29.98,West,277,4.6,4.6,39,0.00,CLR,,0.00,533.0,WeatherDisplay:10.37,2013-02-21 22:37:00,
2013-02-21 14:42:00,61.7,36.5,29.98,West,277,3.5,3.5,39,0.00,CLR,,0.00,515.0,WeatherDisplay:10.37,2013-02-21 22:42:00,
2013-02-21 14:47:00,61.8,36.6,29.98,WSW,254,2.3,2.3,39,0.00,CLR,,0.00,501.0,WeatherDisplay:10.37,2013-02-21 22:47:00,
2013-02-21 14:52:00,62.3,37.0,29.97,WSW,244,3.5,3.5,39,0.00,CLR,,0.00,483.0,WeatherDisplay:10.37,2013-02-21 22:52:00,
2013-02-21 14:57:00,62.6,36.6,29.97,NNE,22,6.9,6.9,38,0.00,CLR,,0.00,475.0,WeatherDisplay:10.37,2013-02-21 22:57:00,
2013-02-21 15:02:00,62.6,35.9,29.98,North,355,5.0,5.0,37,0.00,CLR,,0.00,457.0,WeatherDisplay:10.37,2013-02-21 23:02:00,
2013-02-21 15:07:00,62.6,35.9,29.97,NW,314,4.0,4.0,37,0.00,CLR,,0.00,452.0,WeatherDisplay:10.37,2013-02-21 23:07:00,
2013-02-21 15:12:00,62.4,35.8,29.98,NNW,340,4.6,4.6,37,0.00,CLR,,0.00,438.0,WeatherDisplay:10.37,2013-02-21 23:12:00,
2013-02-21 15:17:00,62.8,36.1,29.98,NNW,328,2.3,2.3,37,0.00,CLR,,0.00,424.0,WeatherDisplay:10.37,2013-02-21 23:17:00,
2013-02-21 15:22:00,63.1,35.7,29.98,NE,38,5.0,5.0,36,0.00,CLR,,0.00,408.0,WeatherDisplay:10.37,2013-02-21 23:22:00,
2013-02-21 15:27:00,62.6,35.9,29.97,NW,306,6.0,6.0,37,0.00,CLR,,0.00,390.0,WeatherDisplay:10.37,2013-02-21 23:27:00,
2013-02-21 15:32:00,62.3,35.0,29.97,NNW,337,3.0,3.0,36,0.00,CLR,,0.00,367.0,WeatherDisplay:10.37,2013-02-21 23:32:00,
2013-02-21 15:37:00,62.4,35.8,29.97,NNE,31,4.0,4.0,37,0.00,CLR,,0.00,366.0,WeatherDisplay:10.37,2013-02-21 23:37:00,
2013-02-21 15:42:00,62.3,35.7,29.97,NNE,26,5.0,5.0,37,0.00,CLR,,0.00,359.0,WeatherDisplay:10.37,2013-02-21 23:42:00,
2013-02-21 15:47:00,62.5,35.2,29.97,NNW,334,8.0,8.0,36,0.00,CLR,,0.00,341.0,WeatherDisplay:10.37,2013-02-21 23:47:00,
2013-02-21 15:52:00,62.4,34.4,29.97,NNW,333,5.0,5.0,35,0.00,CLR,,0.00,315.0,WeatherDisplay:10.37,2013-02-21 23:52:00,
2013-02-21 15:57:00,62.5,35.2,29.97,NNW,343,8.0,8.0,36,0.00,CLR,,0.00,299.0,WeatherDisplay:10.37,2013-02-21 23:57:00,
2013-02-21 16:02:00,62.7,34.6,29.97,North,355,3.5,3.5,35,0.00,CLR,,0.00,276.0,WeatherDisplay:10.37,2013-02-22 00:02:00,
2013-02-21 16:07:00,62.8,34.7,29.97,NNW,331,6.9,6.9,35,0.00,CLR,,0.00,244.0,WeatherDisplay:10.37,2013-02-22 00:07:00,
2013-02-21 16:12:00,62.0,42.1,29.97,West,272,12.7,12.7,48,0.00,CLR,,0.00,221.0,WeatherDisplay:10.37,2013-02-22 00:12:00,
2013-02-21 16:17:00,60.7,42.5,29.97,West,279,13.0,13.0,51,0.00,BKN,,0.00,104.0,WeatherDisplay:10.37,2013-02-22 00:17:00,
2013-02-21 16:22:00,60.2,43.0,29.97,West,274,11.0,11.0,53,0.00,BKN,,0.00,70.0,WeatherDisplay:10.37,2013-02-22 00:22:00,
2013-02-21 16:27:00,59.9,42.7,29.97,West,271,10.4,10.4,53,0.00,CLR,,0.00,183.0,WeatherDisplay:10.37,2013-02-22 00:27:00,
2013-02-21 16:32:00,59.7,42.5,29.97,WSW,253,11.5,11.5,53,0.00,CLR,,0.00,162.0,WeatherDisplay:10.37,2013-02-22 00:32:00,
2013-02-21 16:37:00,59.9,42.2,29.97,West,262,9.0,9.0,52,0.00,CLR,,0.00,141.0,WeatherDisplay:10.37,2013-02-22 00:37:00,
2013-02-21 16:42:00,60.0,42.3,29.97,West,265,11.5,11.5,52,0.00,CLR,,0.00,125.0,WeatherDisplay:10.37,2013-02-22 00:42:00,
2013-02-21 16:47:00,59.8,42.1,29.98,West,269,10.0,10.0,52,0.00,CLR,,0.00,107.0,WeatherDisplay:10.37,2013-02-22 00:47:00,
2013-02-21 16:52:00,59.7,42.0,29.98,WSW,258,9.2,9.2,52,0.00,FEW,,0.00,93.0,WeatherDisplay:10.37,2013-02-22 00:52:00,
2013-02-21 16:57:00,59.4,41.8,29.98,WNW,288,9.2,9.2,52,0.00,FEW,,0.00,77.0,WeatherDisplay:10.37,2013-02-22 00:57:00,
2013-02-21 17:02:00,59.4,41.3,29.98,WNW,290,11.5,11.5,51,0.00,SCT,,0.00,58.0,WeatherDisplay:10.37,2013-02-22 01:02:00,
2013-02-21 17:07:00,59.3,41.2,29.98,WSW,257,12.0,12.0,51,0.00,SCT,,0.00,49.0,WeatherDisplay:10.37,2013-02-22 01:07:00,
2013-02-21 17:12:00,59.1,40.5,29.98,West,264,11.5,11.5,50,0.00,SCT,,0.00,39.0,WeatherDisplay:10.37,2013-02-22 01:12:00,
2013-02-21 17:17:00,58.8,41.2,29.99,West,272,10.4,10.4,52,0.00,SCT,,0.00,28.0,WeatherDisplay:10.37,2013-02-22 01:17:00,
2013-02-21 17:22:00,58.3,42.7,29.99,West,263,11.5,11.5,56,0.00,SCT,,0.00,19.0,WeatherDisplay:10.37,2013-02-22 01:22:00,
2013-02-21 17:27:00,57.8,43.1,29.99,WSW,252,11.5,11.5,58,0.00,SCT,,0.00,16.0,WeatherDisplay:10.37,2013-02-22 01:27:00,
2013-02-21 17:32:00,57.5,43.3,30.00,West,263,10.4,10.4,59,0.00,SCT,,0.00,11.0,WeatherDisplay:10.37,2013-02-22 01:32:00,
2013-02-21 17:37:00,57.1,43.3,30.00,West,266,10.4,10.4,60,0.00,CLR,,0.00,7.0,WeatherDisplay:10.37,2013-02-22 01:37:00,
2013-02-21 17:42:00,56.7,43.4,30.00,West,267,11.5,11.5,61,0.00,CLR,,0.00,5.0,WeatherDisplay:10.37,2013-02-22 01:42:00,
2013-02-21 17:47:00,56.4,43.1,30.00,West,271,13.0,13.0,61,0.00,CLR,,0.00,0.0,WeatherDisplay:10.37,2013-02-22 01:47:00,
2013-02-21 17:52:00,56.2,42.9,30.01,WSW,254,8.1,8.1,61,0.00,CLR,,0.00,0.0,WeatherDisplay:10.37,2013-02-22 01:52:00,
2013-02-21 17:57:00,56.0,41.9,30.01,WNW,286,10.4,10.4,59,0.00,CLR,,0.00,0.0,WeatherDisplay:10.37,2013-02-22 01:57:00,
2013-02-21 18:03:00,55.8,41.2,30.01,West,273,9.2,9.2,58,0.00,CLR,,0.00,0.0,WeatherDisplay:10.37,2013-02-22 02:03:00,
2013-02-21 18:08:00,55.7,41.6,30.02,West,269,8.1,8.1,59,0.00,CLR,,0.00,0.0,WeatherDisplay:10.37,2013-02-22 02:08:00,
2013-02-21 18:13:00,55.6,41.9,30.02,SW,214,8.1,8.1,60,0.00,CLR,,0.00,0.0,WeatherDisplay:10.37,2013-02-22 02:13:00,
2013-02-21 18:18:00,55.3,41.6,30.02,West,278,11.5,11.5,60,0.00,CLR,,0.00,0.0,WeatherDisplay:10.37,2013-02-22 02:18:00,
2013-02-21 18:23:00,55.1,41.9,30.03,West,277,9.0,9.0,61,0.00,CLR,,0.00,0.0,WeatherDisplay:10.37,2013-02-22 02:23:00,
2013-02-21 18:28:00,55.0,41.8,30.03,WSW,257,8.1,8.1,61,0.00,CLR,,0.00,0.0,WeatherDisplay:10.37,2013-02-22 02:28:00,
2013-02-21 18:33:00,54.9,42.1,30.03,WSW,258,8.1,8.1,62,0.00,CLR,,0.00,0.0,WeatherDisplay:10.37,2013-02-22 02:33:00,
2013-02-21 18:38:00,54.8,42.0,30.03,West,259,3.5,3.5,62,0.00,CLR,,0.00,0.0,WeatherDisplay:10.37,2013-02-22 02:38:00,
2013-02-21 18:43:00,54.7,42.3,30.03,West,260,4.6,4.6,63,0.00,CLR,,0.00,0.0,WeatherDisplay:10.37,2013-02-22 02:43:00,
2013-02-21 18:48:00,54.6,42.3,30.03,West,259,3.0,3.0,63,0.00,CLR,,0.00,0.0,WeatherDisplay:10.37,2013-02-22 02:48:00,
2013-02-21 18:53:00,54.4,41.6,30.04,West,259,4.0,4.0,62,0.00,CLR,,0.00,0.0,WeatherDisplay:10.37,2013-02-22 02:53:00,
2013-02-21 18:58:00,54.4,41.2,30.04,West,264,3.5,3.5,61,0.00,CLR,,0.00,0.0,WeatherDisplay:10.37,2013-02-22 02:58:00,
2013-02-21 19:03:00,54.3,41.1,30.04,WNW,285,5.8,5.8,61,0.00,CLR,,0.00,0.0,WeatherDisplay:10.37,2013-02-22 03:03:00,
2013-02-21 19:08:00,54.2,41.0,30.04,West,279,4.6,4.6,61,0.00,CLR,,0.00,0.0,WeatherDisplay:10.37,2013-02-22 03:08:00,
2013-02-21 19:13:00,54.2,41.0,30.05,West,279,4.0,4.0,61,0.00,CLR,,0.00,0.0,WeatherDisplay:10.37,2013-02-22 03:13:00,
2013-02-21 19:18:00,54.1,41.4,30.05,West,280,3.5,3.5,62,0.00,CLR,,0.00,0.0,WeatherDisplay:10.37,2013-02-22 03:18:00,
2013-02-21 19:23:00,54.0,41.3,30.05,West,280,2.3,2.3,62,0.00,CLR,,0.00,0.0,WeatherDisplay:10.37,2013-02-22 03:23:00,
2013-02-21 19:28:00,53.9,41.2,30.05,West,280,3.5,3.5,62,0.00,CLR,,0.00,0.0,WeatherDisplay:10.37,2013-02-22 03:28:00,
2013-02-21 19:33:00,53.9,41.2,30.05,West,280,3.5,3.5,62,0.00,CLR,,0.00,0.0,WeatherDisplay:10.37,2013-02-22 03:33:00,
2013-02-21 19:38:00,53.8,41.5,30.05,West,280,3.0,3.0,63,0.00,CLR,,0.00,0.0,WeatherDisplay:10.37,2013-02-22 03:38:00,
2013-02-21 19:43:00,53.6,41.3,30.06,West,280,3.5,3.5,63,0.00,CLR,,0.00,0.0,WeatherDisplay:10.37,2013-02-22 03:43:00,
2013-02-21 19:48:00,53.5,41.2,30.06,West,281,3.5,3.5,63,0.00,CLR,,0.00,0.0,WeatherDisplay:10.37,2013-02-22 03:48:00,
2013-02-21 19:53:00,53.5,41.6,30.06,West,281,3.5,3.5,64,0.00,CLR,,0.00,0.0,WeatherDisplay:10.37,2013-02-22 03:53:00,
2013-02-21 19:58:00,53.5,41.6,30.06,West,281,2.3,2.3,64,0.00,CLR,,0.00,0.0,WeatherDisplay:10.37,2013-02-22 03:58:00,
2013-02-21 20:03:00,53.5,41.6,30.06,West,281,0.0,0.0,64,0.00,CLR,,0.00,0.0,WeatherDisplay:10.37,2013-02-22 04:03:00,
2013-02-21 20:08:00,53.3,41.4,30.07,West,281,0.0,0.0,64,0.00,CLR,,0.00,0.0,WeatherDisplay:10.37,2013-02-22 04:08:00,
2013-02-21 20:13:00,53.0,41.5,30.07,West,281,2.0,2.0,65,0.00,CLR,,0.00,0.0,WeatherDisplay:10.37,2013-02-22 04:13:00,
2013-02-21 20:18:00,52.8,41.7,30.07,West,281,1.0,1.0,66,0.00,CLR,,0.00,0.0,WeatherDisplay:10.37,2013-02-22 04:18:00,
2013-02-21 20:23:00,52.8,41.7,30.07,West,281,2.3,2.3,66,0.00,CLR,,0.00,0.0,WeatherDisplay:10.37,2013-02-22 04:23:00,
2013-02-21 20:28:00,52.7,41.7,30.07,West,281,2.3,2.3,66,0.00,CLR,,0.00,0.0,WeatherDisplay:10.37,2013-02-22 04:28:00,
2013-02-21 20:33:00,52.6,41.6,30.07,West,281,0.0,0.0,66,0.00,CLR,,0.00,0.0,WeatherDisplay:10.37,2013-02-22 04:33:00,
2013-02-21 20:38:00,52.4,41.8,30.07,West,281,0.0,0.0,67,0.00,CLR,,0.00,0.0,WeatherDisplay:10.37,2013-02-22 04:38:00,
2013-02-21 20:43:00,51.9,41.7,30.07,West,281,1.1,1.1,68,0.00,CLR,,0.00,0.0,WeatherDisplay:10.37,2013-02-22 04:43:00,
2013-02-21 20:48:00,51.6,41.4,30.07,West,281,0.0,0.0,68,0.00,CLR,,0.00,0.0,WeatherDisplay:10.37,2013-02-22 04:48:00,
2013-02-21 20:53:00,51.4,41.2,30.08,West,281,1.1,0.0,68,0.00,CLR,,0.00,0.0,WeatherDisplay:10.37,2013-02-22 04:53:00,
2013-02-21 20:58:00,51.2,41.4,30.08,West,281,0.0,0.0,69,0.00,CLR,,0.00,0.0,WeatherDisplay:10.37,2013-02-22 04:58:00,
2013-02-21 21:00:00,51.2,41.4,30.08,West,281,0.0,0.0,69,0.00,CLR,,0.00,0.0,WeatherDisplay:10.37,2013-02-22 05:00:00,
2013-02-21 21:01:00,51.1,41.3,30.08,West,281,0.0,0.0,69,0.00,CLR,,0.00,0.0,WeatherDisplay:10.37,2013-02-22 05:01:00,
2013-02-21 21:06:00,50.9,41.1,30.08,West,281,1.1,1.1,69,0.00,CLR,,0.00,0.0,WeatherDisplay:10.37,2013-02-22 05:06:00,
2013-02-21 21:11:00,50.9,41.5,30.08,West,281,1.1,0.0,70,0.00,CLR,,0.00,0.0,WeatherDisplay:10.37,2013-02-22 05:11:00,
2013-02-21 21:16:00,50.8,41.4,30.08,West,281,1.1,1.1,70,0.00,CLR,,0.00,0.0,WeatherDisplay:10.37,2013-02-22 05:16:00,
2013-02-21 21:21:00,50.6,41.2,30.08,West,281,1.1,1.1,70,0.00,CLR,,0.00,0.0,WeatherDisplay:10.37,2013-02-22 05:21:00,
2013-02-21 21:26:00,50.4,41.3,30.08,West,281,1.1,0.0,71,0.00,CLR,,0.00,0.0,WeatherDisplay:10.37,2013-02-22 05:26:00,
2013-02-21 21:31:00,50.2,41.2,30.09,West,281,1.0,1.0,71,0.00,CLR,,0.00,0.0,WeatherDisplay:10.37,2013-02-22 05:31:00,
2013-02-21 21:36:00,50.0,41.0,30.08,West,281,1.0,0.0,71,0.00,CLR,,0.00,0.0,WeatherDisplay:10.37,2013-02-22 05:36:00,
2013-02-21 21:41:00,49.9,41.2,30.08,West,281,0.0,0.0,72,0.00,CLR,,0.00,0.0,WeatherDisplay:10.37,2013-02-22 05:41:00,
2013-02-21 21:46:00,49.7,41.0,30.09,West,281,1.1,0.0,72,0.00,CLR,,0.00,0.0,WeatherDisplay:10.37,2013-02-22 05:46:00,
2013-02-21 21:51:00,49.6,41.3,30.09,West,281,0.0,0.0,73,0.00,CLR,,0.00,0.0,WeatherDisplay:10.37,2013-02-22 05:51:00,
2013-02-21 21:56:00,49.4,41.1,30.09,West,281,0.0,0.0,73,0.00,CLR,,0.00,0.0,WeatherDisplay:10.37,2013-02-22 05:56:00,
2013-02-21 22:01:00,49.3,41.0,30.09,West,281,0.0,0.0,73,0.00,CLR,,0.00,0.0,WeatherDisplay:10.37,2013-02-22 06:01:00,
2013-02-21 22:06:00,49.0,40.7,30.09,West,281,1.1,1.1,73,0.00,CLR,,0.00,0.0,WeatherDisplay:10.37,2013-02-22 06:06:00,
2013-02-21 22:11:00,48.8,40.9,30.09,West,281,1.1,1.1,74,0.00,CLR,,0.00,0.0,WeatherDisplay:10.37,2013-02-22 06:11:00,
2013-02-21 22:16:00,48.5,40.6,30.09,West,281,2.0,2.0,74,0.00,CLR,,0.00,0.0,WeatherDisplay:10.37,2013-02-22 06:16:00,
2013-02-21 22:21:00,48.2,40.6,30.09,West,281,1.1,0.0,75,0.00,CLR,,0.00,0.0,WeatherDisplay:10.37,2013-02-22 06:21:00,
2013-02-21 22:26:00,48.0,40.5,30.09,WNW,284,3.5,3.5,75,0.00,CLR,,0.00,0.0,WeatherDisplay:10.37,2013-02-22 06:26:00,
2013-02-21 22:31:00,47.8,40.6,30.09,WNW,284,2.3,2.3,76,0.00,CLR,,0.00,0.0,WeatherDisplay:10.37,2013-02-22 06:31:00,
2013-02-21 22:36:00,47.7,40.5,30.09,WNW,284,1.1,1.1,76,0.00,CLR,,0.00,0.0,WeatherDisplay:10.37,2013-02-22 06:36:00,
2013-02-21 22:41:00,47.6,40.4,30.09,WNW,284,1.1,1.1,76,0.00,CLR,,0.00,0.0,WeatherDisplay:10.37,2013-02-22 06:41:00,
2013-02-21 22:46:00,47.5,40.3,30.09,WNW,284,1.1,0.0,76,0.00,CLR,,0.00,0.0,WeatherDisplay:10.37,2013-02-22 06:46:00,
2013-02-21 22:51:00,47.4,40.2,30.09,WNW,284,1.1,0.0,76,0.00,CLR,,0.00,0.0,WeatherDisplay:10.37,2013-02-22 06:51:00,
2013-02-21 22:56:00,47.3,40.1,30.10,WNW,284,0.0,0.0,76,0.00,CLR,,0.00,0.0,WeatherDisplay:10.37,2013-02-22 06:56:00,
2013-02-21 23:01:00,47.2,40.0,30.10,WNW,284,0.0,0.0,76,0.00,CLR,,0.00,0.0,WeatherDisplay:10.37,2013-02-22 07:01:00,
2013-02-21 23:06:00,47.1,39.9,30.10,WNW,284,0.0,0.0,76,0.00,CLR,,0.00,0.0,WeatherDisplay:10.37,2013-02-22 07:06:00,
2013-02-21 23:11:00,46.9,39.7,30.10,WNW,284,0.0,0.0,76,0.00,CLR,,0.00,0.0,WeatherDisplay:10.37,2013-02-22 07:11:00,
2013-02-21 23:16:00,46.7,39.9,30.10,WNW,284,0.0,0.0,77,0.00,CLR,,0.00,0.0,WeatherDisplay:10.37,2013-02-22 07:16:00,
2013-02-21 23:21:00,46.5,40.0,30.10,WNW,284,1.1,0.0,78,0.00,CLR,,0.00,0.0,WeatherDisplay:10.37,2013-02-22 07:21:00,
2013-02-21 23:26:00,46.4,39.9,30.10,WNW,284,1.1,1.1,78,0.00,CLR,,0.00,0.0,WeatherDisplay:10.37,2013-02-22 07:26:00,
2013-02-21 23:31:00,46.5,40.3,30.10,WNW,284,2.3,2.3,79,0.00,CLR,,0.00,0.0,WeatherDisplay:10.37,2013-02-22 07:31:00,
2013-02-21 23:36:00,46.5,40.3,30.10,WNW,284,1.1,0.0,79,0.00,CLR,,0.00,0.0,WeatherDisplay:10.37,2013-02-22 07:36:00,
2013-02-21 23:41:00,46.5,40.0,30.10,WNW,284,0.0,0.0,78,0.00,CLR,,0.00,0.0,WeatherDisplay:10.37,2013-02-22 07:41:00,
2013-02-21 23:46:00,46.4,40.2,30.10,WNW,284,1.1,0.0,79,0.00,CLR,,0.00,0.0,WeatherDisplay:10.37,2013-02-22 07:46:00,
2013-02-21 23:51:00,46.4,40.2,30.10,WNW,284,0.0,0.0,79,0.00,CLR,,0.00,0.0,WeatherDisplay:10.37,2013-02-22 07:51:00,
2013-02-21 23:56:00,46.3,40.1,30.10,WNW,284,0.0,0.0,79,0.00,CLR,,0.00,0.0,WeatherDisplay:10.37,2013-02-22 07:56:00,